Flag for USA

Past Weather in Hart, Michigan, USA — Yesterday and Last 2 Weeks

Now
55 °F

Mostly cloudy.


Feels Like: 53 °F
Forecast: 57 / 51 °F
Wind: 6 mph from Northwest

Location: Mason County Airport
Current Time: Sep 28, 2020 at 9:30:48 pm
Latest Report: Sep 28, 2020 at 8:55 pm
Visibility: 10 mi
Pressure29.71 "Hg
Humidity: 82%
Dew Point: 49 °F
Location of HartLocation

Past Weather in Hart — Graph

°F

Hart Temperature Yesterday

Maximum temperature yesterday: 72 °F (at 12:15 am)
Minimum temperature yesterday: 57 °F (at 8:35 pm)
Average temperature yesterday: 66 °F

High & Low Weather Summary for the Past Weeks

 TemperatureHumidityPressure
High75 °F (Sep 25, 12:15 pm)99% (Sep 14, 12:55 am)30.47 "Hg (Sep 14, 12:55 am)
Low30 °F (Sep 19, 5:55 am)38% (Sep 21, 6:15 pm)29.56 "Hg (Sep 27, 4:55 am)
Average59 °F76%30.09 "Hg
* Reported Sep 13 8:15 pm — Sep 28 8:15 pm, Hart. Weather by CustomWeather, © 2020

Note: Actual official high and low records may vary slightly from our data, if they occured in-between our weather recording intervals... More about our weather records

Hart Weather History for the Previous 24 Hours

Scroll right to see more
 ConditionsComfort  
Time TempWeatherWind HumidityBarometerVisibility
8:15 pm
Mon, Sep 28
54 °FPassing clouds.5 mph88%29.70 "Hg10 mi
7:55 pm53 °FPassing clouds.3 mph89%29.70 "Hg10 mi
7:35 pm53 °FPassing clouds.No wind90%29.69 "Hg10 mi
7:15 pm54 °FMostly cloudy.3 mph89%29.69 "Hg10 mi
6:55 pm55 °FMostly cloudy.3 mph86%29.68 "Hg10 mi
6:35 pm55 °FPassing clouds.5 mph84%29.68 "Hg10 mi
6:15 pm56 °FPartly cloudy.6 mph86%29.67 "Hg10 mi
5:55 pm55 °FRain. Overcast.3 mph89%29.67 "Hg10 mi
5:35 pm55 °FHeavy rain. Overcast.6 mph89%29.67 "Hg3 mi
5:15 pm56 °FHeavy rain. Mostly cloudy.13 mph91%29.66 "Hg4 mi
4:55 pm59 °FMostly cloudy.14 mph80%29.66 "Hg10 mi
4:35 pm60 °FPassing clouds.10 mph78%29.66 "Hg10 mi
4:15 pm60 °FMostly cloudy.5 mph78%29.67 "Hg10 mi
3:55 pm60 °FMostly cloudy.12 mph79%29.67 "Hg10 mi
3:35 pm61 °FPassing clouds.9 mph77%29.67 "Hg10 mi
3:15 pm60 °FPartly cloudy.8 mph77%29.67 "Hg10 mi
2:55 pm59 °FScattered clouds.9 mph78%29.67 "Hg10 mi
2:35 pm59 °FBroken clouds.7 mph78%29.67 "Hg10 mi
1:55 pm59 °FBroken clouds.12 mph79%29.68 "Hg10 mi
1:35 pm59 °FBroken clouds.10 mph79%29.69 "Hg10 mi
1:15 pm59 °FMostly cloudy.10 mph80%29.69 "Hg10 mi
12:55 pm59 °FMostly cloudy.7 mph80%29.68 "Hg10 mi
12:35 pm59 °FMostly cloudy.10 mph80%29.69 "Hg10 mi
12:15 pm59 °FOvercast.12 mph82%29.70 "Hg10 mi
11:55 am59 °FMostly cloudy.9 mph81%29.70 "Hg10 mi
11:35 am59 °FCloudy.6 mph81%29.69 "Hg10 mi
11:15 am59 °FMostly cloudy.9 mph81%29.70 "Hg10 mi
10:55 am59 °FMostly cloudy.9 mph82%29.70 "Hg10 mi
10:35 am58 °FMostly cloudy.8 mph83%29.70 "Hg10 mi
10:15 am59 °FMostly cloudy.3 mph84%29.69 "Hg10 mi
9:35 am57 °FCloudy.No wind94%29.70 "Hg10 mi
8:55 am56 °FCloudy.No wind92%29.70 "Hg10 mi
8:35 am56 °FDrizzle. Cloudy.No wind90%29.70 "Hg10 mi
7:55 am56 °FDrizzle. Overcast.No wind96%29.70 "Hg10 mi
7:35 am56 °FRain. More clouds than sun.No wind96%29.71 "Hg10 mi
7:15 am56 °FLight rain. Cloudy.No wind97%29.70 "Hg10 mi
6:55 am56 °FDrizzle. More clouds than sun.No wind97%29.70 "Hg10 mi
6:35 am56 °FDrizzle. More clouds than sun.No wind97%29.71 "Hg10 mi
6:15 am55 °FRain. Mostly cloudy.No wind98%29.71 "Hg10 mi
5:55 am56 °FLight rain. Cloudy.No wind97%29.72 "Hg10 mi
5:35 am55 °FLight rain. More clouds than sun.No wind97%29.72 "Hg10 mi
5:15 am55 °FRain. Mostly cloudy.No wind97%29.72 "Hg10 mi
4:55 am57 °FLight rain. Cloudy.No wind90%29.73 "Hg10 mi
4:35 am57 °FRain. Cloudy.No wind89%29.73 "Hg10 mi
4:15 am57 °FLight rain. Overcast.No wind89%29.74 "Hg10 mi
3:55 am57 °FLight rain. Mostly cloudy.No wind89%29.74 "Hg10 mi
3:35 am57 °FLight rain. More clouds than sun.No wind89%29.73 "Hg10 mi
3:15 am57 °FLight rain. Mostly cloudy.No wind89%29.73 "Hg10 mi
2:55 am56 °FLight rain. Overcast.No wind92%29.74 "Hg10 mi
2:15 am55 °FDrizzle. Broken clouds.No wind96%29.73 "Hg10 mi
1:55 am55 °FLight rain. Mostly cloudy.No wind95%29.74 "Hg10 mi
1:35 am57 °FLight rain. Passing clouds.No wind89%29.74 "Hg10 mi
1:15 am57 °FRain. Overcast.No wind87%29.76 "Hg10 mi
12:55 am58 °FLight rain. Overcast.No wind85%29.77 "Hg10 mi
12:35 am58 °FLight rain. Overcast.6 mph82%29.78 "Hg10 mi
12:15 am59 °FLight rain. Overcast.7 mph78%29.79 "Hg10 mi
11:55 pm
Sun, Sep 27
59 °FRain. Mostly cloudy.6 mph76%29.79 "Hg10 mi
11:35 pm60 °FPassing clouds.7 mph74%29.78 "Hg10 mi
11:15 pm60 °FPassing clouds.7 mph73%29.78 "Hg10 mi
10:55 pm60 °FPassing clouds.7 mph79%29.77 "Hg10 mi
10:35 pm60 °FClear.6 mph82%29.77 "Hg10 mi
10:15 pm59 °FClear.3 mph84%29.77 "Hg10 mi
9:35 pm58 °FOvercast.6 mph86%29.77 "Hg10 mi
9:15 pm58 °FOvercast.3 mph89%29.77 "Hg10 mi
Weather by CustomWeather, © 2020

See weather overview